Year,Month,Day,Hour,Minute,Value (Times are PST for temperature in C)
2016,07,26,08,05,14.50
2016,07,26,08,06,14.50
2016,07,26,08,07,14.60
2016,07,26,08,08,14.60
2016,07,26,08,09,14.60
2016,07,26,08,10,14.60
2016,07,26,08,11,14.60
2016,07,26,08,12,14.60
2016,07,26,08,13,14.70
2016,07,26,08,14,14.70
2016,07,26,08,15,14.70
2016,07,26,08,16,14.70
2016,07,26,08,17,14.70
2016,07,26,08,18,14.70
2016,07,26,08,19,14.70
2016,07,26,08,20,14.70
2016,07,26,08,21,14.70
2016,07,26,08,22,14.60
2016,07,26,08,23,14.60
2016,07,26,08,24,14.60
2016,07,26,08,25,14.60
2016,07,26,08,26,14.60
2016,07,26,08,27,14.60
2016,07,26,08,28,14.70
2016,07,26,08,29,14.70
2016,07,26,08,30,14.80
2016,07,26,08,31,14.80
2016,07,26,08,32,14.90
2016,07,26,08,33,14.90
2016,07,26,08,34,15.00
2016,07,26,08,35,15.00
2016,07,26,08,36,15.00
2016,07,26,08,37,15.00
2016,07,26,08,38,15.00
2016,07,26,08,39,15.10
2016,07,26,08,40,15.00
2016,07,26,08,41,15.10
2016,07,26,08,42,15.10
2016,07,26,08,43,15.10
2016,07,26,08,44,15.20
2016,07,26,08,45,15.20
2016,07,26,08,46,15.30
2016,07,26,08,47,15.30
2016,07,26,08,48,15.30
2016,07,26,08,49,15.30
2016,07,26,08,50,15.40
2016,07,26,08,51,15.40
2016,07,26,08,52,15.40
2016,07,26,08,53,15.40
2016,07,26,08,54,15.40
2016,07,26,08,55,15.40
2016,07,26,08,56,15.40
2016,07,26,08,57,15.40
2016,07,26,08,58,15.40
2016,07,26,08,59,15.50
2016,07,26,09,00,15.50
2016,07,26,09,01,15.60
2016,07,26,09,02,15.60
2016,07,26,09,03,15.60
2016,07,26,09,04,15.60
2016,07,26,09,05,15.60
2016,07,26,09,06,15.60
2016,07,26,09,07,15.70
2016,07,26,09,08,15.70
2016,07,26,09,09,15.70
2016,07,26,09,10,15.70
2016,07,26,09,11,15.70
2016,07,26,09,12,15.80
2016,07,26,09,13,15.80
2016,07,26,09,14,15.80
2016,07,26,09,15,15.80
2016,07,26,09,16,15.80
2016,07,26,09,17,15.80
2016,07,26,09,18,15.80
2016,07,26,09,19,15.80
2016,07,26,09,20,15.80
2016,07,26,09,21,15.80
2016,07,26,09,22,15.90
2016,07,26,09,23,15.90
2016,07,26,09,24,15.90
2016,07,26,09,25,16.00
2016,07,26,09,26,16.10
2016,07,26,09,27,16.10
2016,07,26,09,28,16.10
2016,07,26,09,29,16.10
2016,07,26,09,30,16.10
2016,07,26,09,31,16.10
2016,07,26,09,32,16.10
2016,07,26,09,33,16.20
2016,07,26,09,34,16.20
2016,07,26,09,35,16.30
2016,07,26,09,36,16.30
2016,07,26,09,37,16.30
2016,07,26,09,38,16.30
2016,07,26,09,39,16.40
2016,07,26,09,40,16.40
2016,07,26,09,41,16.50
2016,07,26,09,42,16.50
2016,07,26,09,43,16.60
2016,07,26,09,44,16.60
2016,07,26,09,45,16.60
2016,07,26,09,46,16.60
2016,07,26,09,47,16.60
2016,07,26,09,48,16.60
2016,07,26,09,49,16.60
2016,07,26,09,50,16.70
2016,07,26,09,51,16.70
2016,07,26,09,52,16.70
2016,07,26,09,53,16.70
2016,07,26,09,54,16.80
2016,07,26,09,55,16.80
2016,07,26,09,56,16.90
2016,07,26,09,57,17.00
2016,07,26,09,58,17.00
2016,07,26,09,59,17.10
2016,07,26,10,00,17.10
2016,07,26,10,01,17.20
2016,07,26,10,02,17.20
2016,07,26,10,03,17.20
2016,07,26,10,04,17.30
2016,07,26,10,05,17.30
2016,07,26,10,06,17.30
2016,07,26,10,07,17.30
2016,07,26,10,08,17.40
2016,07,26,10,09,17.40
2016,07,26,10,10,17.40
2016,07,26,10,11,17.40
2016,07,26,10,12,17.50
2016,07,26,10,13,17.50
2016,07,26,10,14,17.60
2016,07,26,10,15,17.60
2016,07,26,10,16,17.60
2016,07,26,10,17,17.70
2016,07,26,10,18,17.70
2016,07,26,10,19,17.70
2016,07,26,10,20,17.70
2016,07,26,10,21,17.70
2016,07,26,10,22,17.80
2016,07,26,10,23,17.80
2016,07,26,10,24,17.90
2016,07,26,10,25,17.90
2016,07,26,10,26,17.80
2016,07,26,10,27,17.80
2016,07,26,10,28,17.80
2016,07,26,10,29,17.90
2016,07,26,10,30,17.90
2016,07,26,10,31,18.00
2016,07,26,10,32,18.00
2016,07,26,10,33,18.10
2016,07,26,10,34,18.10
2016,07,26,10,35,18.10
2016,07,26,10,36,18.10
2016,07,26,10,37,18.20
2016,07,26,10,38,18.20
2016,07,26,10,39,18.30
2016,07,26,10,40,18.30
2016,07,26,10,41,18.40
2016,07,26,10,42,18.40
2016,07,26,10,43,18.50
2016,07,26,10,44,18.60
2016,07,26,10,45,18.70
2016,07,26,10,46,18.80
2016,07,26,10,47,18.90
2016,07,26,10,48,18.90
2016,07,26,10,49,19.00
2016,07,26,10,50,19.00
2016,07,26,10,51,19.10
2016,07,26,10,52,19.10
2016,07,26,10,53,19.10
2016,07,26,10,54,19.20
2016,07,26,10,55,19.20
2016,07,26,10,56,19.20
2016,07,26,10,57,19.20
2016,07,26,10,58,19.20
2016,07,26,10,59,19.20
2016,07,26,11,00,19.30
2016,07,26,11,01,19.30
2016,07,26,11,02,19.30
2016,07,26,11,03,19.30
2016,07,26,11,04,19.30
2016,07,26,11,05,19.30
2016,07,26,11,06,19.30
2016,07,26,11,07,19.40
2016,07,26,11,08,19.40
2016,07,26,11,09,19.40
2016,07,26,11,10,19.40
2016,07,26,11,11,19.40
2016,07,26,11,12,19.40
2016,07,26,11,13,19.40
2016,07,26,11,14,19.40
2016,07,26,11,15,19.50
2016,07,26,11,16,19.50
2016,07,26,11,17,19.60
2016,07,26,11,18,19.70
2016,07,26,11,19,19.70
2016,07,26,11,20,19.70
2016,07,26,11,21,19.80
2016,07,26,11,22,19.80
2016,07,26,11,23,19.80
2016,07,26,11,24,19.80
2016,07,26,11,25,19.80
2016,07,26,11,26,19.80
2016,07,26,11,27,19.90
2016,07,26,11,28,19.90
2016,07,26,11,29,20.00
2016,07,26,11,30,20.10
2016,07,26,11,31,20.20
2016,07,26,11,32,20.30
2016,07,26,11,33,20.30
2016,07,26,11,34,20.40
2016,07,26,11,35,20.40
2016,07,26,11,36,20.40
2016,07,26,11,37,20.50
2016,07,26,11,38,20.50
2016,07,26,11,39,20.60
2016,07,26,11,40,20.70
2016,07,26,11,41,20.70
2016,07,26,11,42,20.70
2016,07,26,11,43,20.80
2016,07,26,11,44,20.90
2016,07,26,11,45,21.00
2016,07,26,11,46,21.00
2016,07,26,11,47,21.00
2016,07,26,11,48,20.90
2016,07,26,11,49,21.00
2016,07,26,11,50,21.00
2016,07,26,11,51,21.10
2016,07,26,11,52,21.10
2016,07,26,11,53,21.10
2016,07,26,11,54,21.00
2016,07,26,11,55,21.00
2016,07,26,11,56,20.90
2016,07,26,11,57,20.80
2016,07,26,11,58,20.90
2016,07,26,11,59,20.90
2016,07,26,12,00,20.90
2016,07,26,12,01,21.00
2016,07,26,12,02,21.10
2016,07,26,12,03,21.10
2016,07,26,12,04,21.20
2016,07,26,12,05,21.30
2016,07,26,12,06,21.30
2016,07,26,12,07,21.40
2016,07,26,12,08,21.40
2016,07,26,12,09,21.50
2016,07,26,12,10,21.50
2016,07,26,12,11,21.60
2016,07,26,12,12,21.60
2016,07,26,12,13,21.50
2016,07,26,12,14,21.50
2016,07,26,12,15,21.40
2016,07,26,12,16,21.40
2016,07,26,12,17,21.40
2016,07,26,12,18,21.40
2016,07,26,12,19,21.50
2016,07,26,12,20,21.50
2016,07,26,12,21,21.60
2016,07,26,12,22,21.60
2016,07,26,12,23,21.60
2016,07,26,12,24,21.60
2016,07,26,12,25,21.70
2016,07,26,12,26,21.70
2016,07,26,12,27,21.70
2016,07,26,12,28,21.80
2016,07,26,12,29,21.80
2016,07,26,12,30,21.80
2016,07,26,12,31,21.80
2016,07,26,12,32,21.80
2016,07,26,12,33,21.80
2016,07,26,12,34,21.80
2016,07,26,12,35,21.70
2016,07,26,12,36,21.70
2016,07,26,12,37,21.80
2016,07,26,12,38,21.80
2016,07,26,12,39,21.80
2016,07,26,12,40,21.80
2016,07,26,12,41,21.80
2016,07,26,12,42,21.80
2016,07,26,12,43,21.80
2016,07,26,12,44,21.80
2016,07,26,12,45,21.90
2016,07,26,12,46,21.80
2016,07,26,12,47,21.80
2016,07,26,12,48,21.80
2016,07,26,12,49,21.90
2016,07,26,12,50,21.90
2016,07,26,12,51,21.90
2016,07,26,12,52,21.90
2016,07,26,12,53,21.90
2016,07,26,12,54,21.90
2016,07,26,12,55,21.90
2016,07,26,12,56,21.90
2016,07,26,12,57,21.90
2016,07,26,12,58,21.80
2016,07,26,12,59,21.70
2016,07,26,13,00,21.70
2016,07,26,13,01,21.70
2016,07,26,13,02,21.70
2016,07,26,13,03,21.70
2016,07,26,13,04,21.70
2016,07,26,13,05,21.70
2016,07,26,13,06,21.70
2016,07,26,13,07,21.70
2016,07,26,13,08,21.70
2016,07,26,13,09,21.80
2016,07,26,13,10,21.80
2016,07,26,13,11,21.80
2016,07,26,13,12,21.80
2016,07,26,13,13,21.70
2016,07,26,13,14,21.70
2016,07,26,13,15,21.70
2016,07,26,13,16,21.60
2016,07,26,13,17,21.60
2016,07,26,13,18,21.60
2016,07,26,13,19,21.60
2016,07,26,13,20,21.60
2016,07,26,13,21,21.60
2016,07,26,13,22,21.70
2016,07,26,13,23,21.70
2016,07,26,13,24,21.80
2016,07,26,13,25,21.90
2016,07,26,13,26,21.90
2016,07,26,13,27,22.00
2016,07,26,13,28,22.00
2016,07,26,13,29,22.00
2016,07,26,13,30,22.10
2016,07,26,13,31,22.00
2016,07,26,13,32,22.00
2016,07,26,13,33,22.00
2016,07,26,13,34,22.00
2016,07,26,13,35,22.00
2016,07,26,13,36,21.90
2016,07,26,13,37,22.00
2016,07,26,13,38,22.00
2016,07,26,13,39,22.10
2016,07,26,13,40,22.10
2016,07,26,13,41,22.20
2016,07,26,13,42,22.20
2016,07,26,13,43,22.20
2016,07,26,13,44,22.30
2016,07,26,13,45,22.30
2016,07,26,13,46,22.40
2016,07,26,13,47,22.40
2016,07,26,13,48,22.40
2016,07,26,13,49,22.40
2016,07,26,13,50,22.40
2016,07,26,13,51,22.40
2016,07,26,13,52,22.30
2016,07,26,13,53,22.30
2016,07,26,13,54,22.30
2016,07,26,13,55,22.30
2016,07,26,13,56,22.40
2016,07,26,13,57,22.40
2016,07,26,13,58,22.50
2016,07,26,13,59,22.50
2016,07,26,14,00,22.50
2016,07,26,14,01,22.60
2016,07,26,14,02,22.60
2016,07,26,14,03,22.70
2016,07,26,14,04,22.80
2016,07,26,14,05,22.90
2016,07,26,14,06,23.00
2016,07,26,14,07,23.10
2016,07,26,14,08,23.20
2016,07,26,14,09,23.20
2016,07,26,14,10,23.30
2016,07,26,14,11,23.50
2016,07,26,14,12,23.60
2016,07,26,14,13,23.60
2016,07,26,14,14,23.60
2016,07,26,14,15,23.50
2016,07,26,14,16,23.50
2016,07,26,14,17,23.40
2016,07,26,14,18,23.30
2016,07,26,14,19,23.30
2016,07,26,14,20,23.20
2016,07,26,14,21,23.10
2016,07,26,14,22,23.00
2016,07,26,14,23,22.90
2016,07,26,14,24,22.80
2016,07,26,14,25,22.70
2016,07,26,14,26,22.60
2016,07,26,14,27,22.60
2016,07,26,14,28,22.50
2016,07,26,14,29,22.40
2016,07,26,14,30,22.40
2016,07,26,14,31,22.30
2016,07,26,14,32,22.20
2016,07,26,14,33,22.20
2016,07,26,14,34,22.10
2016,07,26,14,35,22.10
2016,07,26,14,36,22.10
2016,07,26,14,37,22.10
2016,07,26,14,38,22.00
2016,07,26,14,39,22.10
2016,07,26,14,40,22.10
2016,07,26,14,41,22.00
2016,07,26,14,42,21.90
2016,07,26,14,43,21.80
2016,07,26,14,44,21.70
2016,07,26,14,45,21.70
2016,07,26,14,46,21.60
2016,07,26,14,47,21.50
2016,07,26,14,48,21.50
2016,07,26,14,49,21.50
2016,07,26,14,50,21.50
2016,07,26,14,51,21.50
2016,07,26,14,52,21.60
2016,07,26,14,53,21.60
2016,07,26,14,54,21.60
2016,07,26,14,55,21.60
2016,07,26,14,56,21.60
2016,07,26,14,57,21.70
2016,07,26,14,58,21.70
2016,07,26,14,59,21.60
2016,07,26,15,00,21.60
2016,07,26,15,01,21.60
2016,07,26,15,02,21.60
2016,07,26,15,03,21.60
2016,07,26,15,04,21.60
2016,07,26,15,05,21.50
2016,07,26,15,06,21.50
2016,07,26,15,07,21.40
2016,07,26,15,08,21.40
2016,07,26,15,09,21.40
2016,07,26,15,10,21.50
2016,07,26,15,11,21.50
2016,07,26,15,12,21.60
2016,07,26,15,13,21.60
2016,07,26,15,14,21.70
2016,07,26,15,15,21.70
2016,07,26,15,16,21.80
2016,07,26,15,17,21.80
2016,07,26,15,18,21.80
2016,07,26,15,19,21.80
2016,07,26,15,20,21.80
2016,07,26,15,21,21.80
2016,07,26,15,22,21.90
2016,07,26,15,23,21.90
2016,07,26,15,24,22.00
2016,07,26,15,25,22.00
2016,07,26,15,26,22.00
2016,07,26,15,27,22.10
2016,07,26,15,28,22.20
2016,07,26,15,29,22.30
2016,07,26,15,30,22.40
2016,07,26,15,31,22.40
2016,07,26,15,32,22.40
2016,07,26,15,33,22.50
2016,07,26,15,34,22.60
2016,07,26,15,35,22.60
2016,07,26,15,36,22.60
2016,07,26,15,37,22.50
2016,07,26,15,38,22.50
2016,07,26,15,39,22.50
2016,07,26,15,40,22.50
2016,07,26,15,41,22.60
2016,07,26,15,42,22.60
2016,07,26,15,43,22.70
2016,07,26,15,44,22.70
2016,07,26,15,45,22.80
2016,07,26,15,46,22.80
2016,07,26,15,47,22.80
2016,07,26,15,48,22.80
2016,07,26,15,49,22.80
2016,07,26,15,50,22.80
2016,07,26,15,51,22.70
2016,07,26,15,52,22.60
2016,07,26,15,53,22.40
2016,07,26,15,54,22.30
2016,07,26,15,55,22.30
2016,07,26,15,56,22.30
2016,07,26,15,57,22.20
2016,07,26,15,58,22.20
2016,07,26,15,59,22.20
2016,07,26,16,00,22.20
2016,07,26,16,01,22.10
2016,07,26,16,02,22.00
2016,07,26,16,03,21.90
2016,07,26,16,04,21.80
2016,07,26,16,05,21.60
2016,07,26,16,06,21.60
2016,07,26,16,07,21.50
2016,07,26,16,08,21.50
2016,07,26,16,09,21.40
2016,07,26,16,10,21.30
2016,07,26,16,11,21.20
2016,07,26,16,12,21.10
2016,07,26,16,13,21.00
2016,07,26,16,14,21.00
2016,07,26,16,15,21.00
2016,07,26,16,16,21.10
2016,07,26,16,17,21.10
2016,07,26,16,18,21.10
2016,07,26,16,19,21.10
2016,07,26,16,20,21.10
2016,07,26,16,21,21.20
2016,07,26,16,22,21.20
2016,07,26,16,23,21.20
2016,07,26,16,24,21.20
2016,07,26,16,25,21.20
2016,07,26,16,26,21.20
2016,07,26,16,27,21.30
2016,07,26,16,28,21.30
2016,07,26,16,29,21.40
2016,07,26,16,30,21.40
2016,07,26,16,31,21.40
2016,07,26,16,32,21.50
2016,07,26,16,33,21.50
2016,07,26,16,34,21.50
2016,07,26,16,35,21.40
2016,07,26,16,36,21.40
2016,07,26,16,37,21.30
2016,07,26,16,38,21.30
2016,07,26,16,39,21.40
2016,07,26,16,40,21.40
2016,07,26,16,41,21.40
2016,07,26,16,42,21.50
2016,07,26,16,43,21.50
2016,07,26,16,44,21.60
2016,07,26,16,45,21.60
2016,07,26,16,46,21.60
2016,07,26,16,47,21.60
2016,07,26,16,48,21.60
2016,07,26,16,49,21.70
2016,07,26,16,50,21.70
2016,07,26,16,51,21.60
2016,07,26,16,52,21.60
2016,07,26,16,53,21.50
2016,07,26,16,54,21.50
2016,07,26,16,55,21.50
2016,07,26,16,56,21.50
2016,07,26,16,57,21.60
2016,07,26,16,58,21.60
2016,07,26,16,59,21.60
2016,07,26,17,00,21.60
2016,07,26,17,01,21.60
2016,07,26,17,02,21.60
2016,07,26,17,03,21.60
2016,07,26,17,04,21.60
2016,07,26,17,05,21.50
2016,07,26,17,06,21.50
2016,07,26,17,07,21.40
2016,07,26,17,08,21.40
2016,07,26,17,09,21.50
2016,07,26,17,10,21.50
2016,07,26,17,11,21.50
2016,07,26,17,12,21.50
2016,07,26,17,13,21.60
2016,07,26,17,14,21.60
2016,07,26,17,15,21.60
2016,07,26,17,16,21.60
2016,07,26,17,17,21.70
2016,07,26,17,18,21.70
2016,07,26,17,19,21.80
2016,07,26,17,20,21.80
2016,07,26,17,21,21.90
2016,07,26,17,22,21.90
2016,07,26,17,23,21.90
2016,07,26,17,24,21.90
2016,07,26,17,25,21.90
2016,07,26,17,26,21.90
2016,07,26,17,27,21.90
2016,07,26,17,28,21.90
2016,07,26,17,29,21.90
2016,07,26,17,30,21.90
2016,07,26,17,31,21.90
2016,07,26,17,32,21.90
2016,07,26,17,33,21.90
2016,07,26,17,34,21.90
2016,07,26,17,35,21.90
2016,07,26,17,36,21.90
2016,07,26,17,37,21.80
2016,07,26,17,38,21.80
2016,07,26,17,39,21.80
2016,07,26,17,40,21.70
2016,07,26,17,41,21.70
2016,07,26,17,42,21.60
2016,07,26,17,43,21.60
2016,07,26,17,44,21.60
2016,07,26,17,45,21.60
2016,07,26,17,46,21.50
2016,07,26,17,47,21.50
2016,07,26,17,48,21.50
2016,07,26,17,49,21.40
2016,07,26,17,50,21.30
2016,07,26,17,51,21.30
2016,07,26,17,52,21.30
2016,07,26,17,53,21.30
2016,07,26,17,54,21.30
2016,07,26,17,55,21.20
2016,07,26,17,56,21.20
2016,07,26,17,57,21.10
2016,07,26,17,58,21.10
2016,07,26,17,59,21.10
2016,07,26,18,00,21.10
2016,07,26,18,01,21.10
2016,07,26,18,02,21.10
2016,07,26,18,03,21.00
2016,07,26,18,04,21.00
2016,07,26,18,05,20.90
2016,07,26,18,06,20.90
2016,07,26,18,07,20.90
2016,07,26,18,08,20.90
2016,07,26,18,09,20.80
2016,07,26,18,10,20.70
2016,07,26,18,11,20.60
2016,07,26,18,12,20.50
2016,07,26,18,13,20.40
2016,07,26,18,14,20.30
2016,07,26,18,15,20.30
2016,07,26,18,16,20.20
2016,07,26,18,17,20.20
2016,07,26,18,18,20.20
2016,07,26,18,19,20.10
2016,07,26,18,20,20.10
2016,07,26,18,21,20.10
2016,07,26,18,22,20.10
2016,07,26,18,23,20.20
2016,07,26,18,24,20.20
2016,07,26,18,25,20.20
2016,07,26,18,26,20.20
2016,07,26,18,27,20.20
2016,07,26,18,28,20.20
2016,07,26,18,29,20.20
2016,07,26,18,30,20.20
2016,07,26,18,31,20.20
2016,07,26,18,32,20.20
2016,07,26,18,33,20.10
2016,07,26,18,34,20.10
2016,07,26,18,35,20.00
2016,07,26,18,36,20.00
2016,07,26,18,37,19.90
2016,07,26,18,38,19.90
2016,07,26,18,39,19.90
2016,07,26,18,40,19.90
2016,07,26,18,41,19.90
2016,07,26,18,42,19.90
2016,07,26,18,43,19.90
2016,07,26,18,44,19.90
2016,07,26,18,45,19.90
2016,07,26,18,46,19.80
2016,07,26,18,47,19.80
2016,07,26,18,48,19.70
2016,07,26,18,49,19.70
2016,07,26,18,50,19.70
2016,07,26,18,51,19.70
2016,07,26,18,52,19.70
2016,07,26,18,53,19.70
2016,07,26,18,54,19.60
2016,07,26,18,55,19.60
2016,07,26,18,56,19.50
2016,07,26,18,57,19.50
2016,07,26,18,58,19.50
2016,07,26,18,59,19.40
2016,07,26,19,00,19.40
2016,07,26,19,01,19.30
2016,07,26,19,02,19.30
2016,07,26,19,03,19.30
2016,07,26,19,04,19.20
2016,07,26,19,05,19.20
2016,07,26,19,06,19.20
2016,07,26,19,07,19.10
2016,07,26,19,08,19.10
2016,07,26,19,09,19.10
2016,07,26,19,10,19.10
2016,07,26,19,11,19.10
2016,07,26,19,12,19.10
2016,07,26,19,13,19.10
2016,07,26,19,14,19.10
2016,07,26,19,15,19.10
2016,07,26,19,16,19.10
2016,07,26,19,17,19.10
2016,07,26,19,18,19.10
2016,07,26,19,19,19.10
2016,07,26,19,20,19.10
2016,07,26,19,21,19.10
2016,07,26,19,22,19.10
2016,07,26,19,23,19.10
2016,07,26,19,24,19.10
2016,07,26,19,25,19.10
2016,07,26,19,26,19.10
2016,07,26,19,27,19.10
